Location: Newark
(34.9500°N, 139.9667°E)
Time: 02:46:00
(UTC+00:00)

Altair - Pass Details

Date: 16 December 2019
Orbit: 1502 x 1682 km, 47.2° (Epoch: 25 January)

Event Time Altitude Azimuth Distance (km) Brightness Sun altitude
Rises 10:29:01 0° 247° (WSW) 4,843 11.0 -35.7°
Reaches altitude 10° 10:32:14 10° 250° (WSW) 3,835 10.3 -36.4°
Maximum altitude 10:41:54 64° 331° (NNW) 1,707 7.6 -38.4°
Enters shadow 10:42:07 64° 338° (NNW) 1,707 7.6 -38.4°
